Date,TemperatureHighF,TemperatureAvgF,TemperatureLowF,DewpointHighF,DewpointAvgF,DewpointLowF,HumidityHigh,HumidityAvg,HumidityLow,PressureMaxIn,PressureMinIn,WindSpeedMaxMPH,WindSpeedAvgMPH,GustSpeedMaxMPH,PrecipitationSumIn
2013-2-1,42,30,26,21,19,17,75,65,40,0.00,40.00,11,5,27,0.06
2013-2-2,44,28,16,20,15,8,85,60,31,0.00,40.00,5,3,10,0.01
2013-2-3,38,27,14,19,14,11,86,60,40,0.00,40.00,8,3,15,0.01
2013-2-4,44,26,12,16,13,7,84,60,29,0.00,40.00,9,4,19,0.00
2013-2-5,48,32,16,18,14,9,75,51,28,0.00,40.00,5,2,10,0.00
2013-2-6,40,30,21,27,23,16,96,76,45,0.00,40.00,8,4,16,0.00
2013-2-7,41,25,14,23,17,11,95,75,38,0.00,40.00,5,2,8,0.04
2013-2-8,39,24,10,26,14,6,89,68,36,0.00,40.00,6,3,17,0.01
2013-2-9,37,26,14,26,21,6,95,83,54,0.00,40.00,5,3,17,0.21
2013-2-10,36,21,14,15,11,6,81,67,34,0.00,40.00,7,4,13,0.02
2013-2-11,35,17,10,15,11,3,87,77,38,0.00,40.00,9,4,18,0.02
2013-2-12,31,16,2,8,4,-2,82,61,33,0.00,40.00,6,2,10,0.02
2013-2-13,36,23,14,18,12,6,75,62,44,0.00,40.00,9,4,23,0.01
2013-2-14,43,26,21,19,13,7,78,59,30,0.00,40.00,9,5,18,0.00
2013-2-15,40,25,18,14,10,7,71,56,27,0.00,40.00,8,4,17,0.00
2013-2-16,44,27,10,13,9,5,78,50,26,0.00,40.00,11,5,25,0.00
2013-2-17,47,29,14,17,9,6,71,47,20,0.00,40.00,11,5,23,0.00
2013-2-18,33,21,12,17,6,1,88,53,31,0.00,40.00,9,4,21,0.00
2013-2-19,41,22,5,7,3,-2,73,47,24,0.00,40.00,4,2,8,0.00
2013-2-20,40,27,13,22,10,4,77,52,29,0.00,40.00,5,2,13,0.00
2013-2-21,36,25,16,24,18,11,90,76,55,0.00,40.00,5,3,12,0.11
2013-2-22,33,19,13,14,9,1,88,67,42,0.00,40.00,7,3,13,0.02
2013-2-23,37,19,7,21,11,1,93,71,42,0.00,40.00,8,4,16,0.02
2013-2-24,31,20,14,20,13,5,92,74,55,0.00,40.00,10,4,22,0.18
2013-2-25,37,19,5,12,6,0,83,60,32,0.00,40.00,6,3,12,0.01
2013-2-26,29,19,15,17,12,8,90,74,40,0.00,40.00,5,3,12,0.02
2013-2-27,37,18,7,14,6,-1,91,62,27,0.00,40.00,7,2,16,0.02
2013-2-28,36,21,3,18,6,-3,77,55,28,0.00,40.00,9,4,20,0.01